User: anonymous   Login
Location: Caltech
(34.1382°N, 118.1253°W)
Time: 02:07:01
(UTC-07:00)
Language:

OAO 2 Rocket - Orbit

View from above orbital plane
View from above orbital plane
View from above satellite
View from above satellite

Ground track
Ground track

The orbit data is extracted from the following two-line orbital elements,

1  3598U 68110B   17083.90365263 +.00000105 +00000-0 +28460-4 0  9994
2  3598 034.9936 093.1468 0049805 264.1038 095.3977 14.54293190533292
Epoch (UTC): 24 March 2017 21:41:15
Eccentricity: 0.0049805
inclination: 34.9936°
perigee height: 676 km
apogee height: 747 km
right ascension of ascending node: 93.1468°
argument of perigee: 264.1038°
revolutions per day: 14.54293190
mean anomaly at epoch: 95.3977°
orbit number at epoch: 53329

The dashed part of the orbit path shows where the satellite is in the earth's shadow,  

DLR